User: anonymous
Location: Fort Hays State University
(38.8712°N, 99.3432°W)
Time: 08:28:56
(UTC-05:00)
Language:

Cosmos 2279 Rocket - Orbit

View from above orbital plane
View from above orbital plane
View from above satellite
View from above satellite

Ground track
Ground track

The orbit data is extracted from the following two-line orbital elements,

1 23093U 94024B   14292.04462265  .00000064  00000-0  48967-4 0  9238
2 23093 082.9438 117.4624 0009877 201.7245 158.3495 13.77630427497577
Epoch (UTC): 19 October 2014 01:04:15
Eccentricity: 0.0009877
inclination: 82.9438°
perigee height: 965 km
apogee height: 979 km
right ascension of ascending node: 117.4624°
argument of perigee: 201.7245°
revolutions per day: 13.77630427
mean anomaly at epoch: 158.3495°
orbit number at epoch: 49757

The dashed part of the orbit path shows where the satellite is in the earth's shadow,  

DLR